Vertical_Velocity
1 1 2 1 0 1 1 2 2 1 0 1 1 0 -0 -0 0 0 -0 -0 -1 0 -2 -1 -3 -2 -2 -4 -4 -4 -4 -9 -24 27 -12 -0 -1 -11 -3 -5 -4 2 3
0 0 2 3 2 1 2 1 1 1 1 1 -0 -1 -1 -1 -1 -0 -1 0 1 -2 -2 -2 -3 -2 -3 -4 -3 -1 -2 0 -17 -28 5 -0 -0 2 -5 -1 -1 -3 -7
-0 1 2 2 2 1 1 1 2 1 0 -0 -0 0 -1 -1 -1 -0 2 0 -2 -2 -1 -2 -0 -1 -1 -2 -2 -1 -2 -1 -4 -15 -5 2 -5 -5 3 -0 2 -0 -7
1 1 2 2 2 1 1 2 0 0 -0 0 0 -0 -0 -0 -1 -2 -2 -1 -1 -3 -4 -4 -2 -4 -3 -2 -4 -3 1 0 -6 -9 -4 -2 -6 3 -4 -7 11 -4 -6
1 1 1 1 1 2 3 1 -0 1 1 -0 -0 1 -0 -1 -2 -2 -1 1 -1 -0 -1 -3 -3 -1 -2 -4 -7 -2 -1 -4 -9 -4 -2 -5 -1 0 -3 0 0 9 -11
1 1 1 1 2 4 2 0 1 0 0 1 0 -1 -1 -1 -1 -1 -2 1 -1 -1 1 0 -1 -1 -1 -1 1 0 -0 -14 -9 -9 -4 -4 7 -4 3 -2 -5 -1 20
1 2 4 3 2 1 2 1 0 1 1 0 -1 -0 -2 -1 -1 -2 -1 1 -0 -2 -1 -2 -2 -4 -1 -1 -1 -3 3 -1 -7 -8 -3 -5 2 -5 -1 5 -3 -5 -7
4 3 1 0 2 2 1 1 1 1 -1 -0 0 0 -2 -0 -0 0 1 -2 -1 -1 -1 -7 -5 -1 -3 -7 -4 2 3 1 2 -1 -4 1 -3 -1 -2 -1 3 6 0
2 1 0 1 1 1 0 1 1 -1 -0 -1 -1 -0 2 -2 0 -1 -1 1 1 -2 -2 -0 -8 0 -0 -1 -7 -5 1 -2 -3 -4 -8 -4 -3 -5 -5 6 -0 -0 10
1 -1 0 1 1 2 1 -1 0 0 -0 -1 0 1 -0 3 -0 -1 -0 -3 -4 2 3 -0 -0 -3 -3 -2 -4 -3 3 0 3 -2 -6 -6 -5 -3 -6 -6 -1 4 -2
-1 -0 1 2 2 -0 -0 0 -0 -1 2 3 -1 -0 -2 -2 0 -3 -2 -2 -4 0 -0 -1 -1 -2 -1 -4 -4 -2 -2 5 0 0 -0 -0 -3 -1 -1 -4 -4 -2 3
1 2 1 0 -0 0 1 0 0 1 0 1 2 -1 -4 -4 -6 0 -0 -2 -1 -4 1 -3 -3 -2 -2 -2 0 -1 0 -1 0 -0 0 0 2 0 -1 -3 -3 -3 -4
1 -0 0 1 1 0 0 1 1 1 1 0 1 0 2 -1 -1 -2 0 -4 -2 -2 -1 -2 -2 -3 -2 -1 -4 -0 0 1 0 1 1 -2 -1 0 2 0 -4 2 -4
1 1 1 1 0 -1 0 1 -0 -1 -1 -0 0 -0 1 -0 1 2 4 2 7 6 6 5 1 -1 -1 3 1 -0 -1 0 2 2 1 -2 -1 -0 -1 1 1 2 0
1 0 -0 -0 1 1 -1 -1 -2 -0 0 1 -0 0 1 3 1 1 0 -1 -1 -1 -2 -1 -2 -1 -2 -2 -4 -3 -1 -2 -2 -2 -1 0 -2 0 -2 0 0 0 -1
-0 0 0 -1 -2 -1 -1 -2 3 -0 -3 -3 -3 -4 1 -6 -3 -2 -1 -5 -4 -3 1 -1 -3 -0 0 1 1 -0 -3 -2 -2 -1 -1 -0 -2 -1 2 -1 -1 1 3
0 -1 -1 -1 -0 0 1 1 -3 -12 -6 -3 0 0 -3 -4 -4 -2 -2 -2 -8 1 -2 -2 0 -0 -0 0 1 -1 1 -1 0 -1 -0 0 1 -1 2 0 1 1 -2
-1 -1 0 0 0 -0 -2 -1 -0 2 7 8 -6 -3 0 -7 -7 -7 -3 -0 -2 -8 -2 1 -2 -1 0 0 -1 1 -1 -0 -1 -1 -1 -0 -0 -1 1 -2 0 2 1
-1 1 1 -0 -1 -0 -1 -1 -1 -1 -1 -1 3 0 -1 -4 -6 -4 -3 -2 -0 -2 -2 -1 -1 -0 -1 -1 -1 -2 2 2 2 3 -1 -1 -1 -0 -2 0 -0 -0 1
-0 -0 -1 -0 -0 -1 -1 0 -1 -1 -1 -1 -5 -3 2 1 2 0 -3 -2 -3 -1 -1 -0 -2 -2 -2 -1 -1 0 -1 0 1 0 -0 -0 -1 -1 -0 -0 1 0 -0
-0 1 1 0 -0 -0 -0 -1 -1 -0 0 -1 -2 -4 -3 -1 1 -0 -1 -1 -1 -2 -2 -0 -1 -1 -1 -1 -1 -0 -1 -0 -1 -2 -1 -0 -0 -1 -1 -0 -0 -1 -1
-0 0 0 -1 -1 -3 -2 -1 -1 -1 -2 -0 0 -5 -4 -4 -1 -0 -0 -1 -0 -1 -2 -1 -1 -1 -1 -0 1 -1 -2 -2 -1 -1 0 -0 -2 -2 -1 -0 -1 -2 -1
1 -0 -1 -1 -0 -2 -4 -5 -3 -2 -1 -4 -2 -1 -1 -1 -1 -0 -0 -1 -0 -1 -1 -1 -1 -1 -1 0 0 -1 1 -0 1 0 -3 -5 -3 -0 -0 -1 -1 -1 -1
-1 -0 -1 -2 -2 -1 -1 -2 -3 -4 -3 -1 -0 -1 -0 -0 0 1 0 0 -1 -1 -1 -0 -1 -1 1 -1 -3 -1 -0 0 -2 1 3 3 -0 -1 -0 -1 -2 -1 -1
-1 -1 -3 -3 -0 -1 -2 -3 -1 -1 -1 -0 1 1 0 -0 1 1 1 0 -1 -2 1 0 -2 -0 -1 -2 -0 -1 -2 -1 -5 -3 1 0 0 1 1 1 1 1 -0
-2 -3 -1 -2 -3 -4 -2 -0 -1 -1 -1 -2 -0 1 -1 -0 1 0 0 -0 -1 -0 1 -1 1 0 -2 -1 0 -0 -0 -2 0 2 -2 -1 -0 -0 0 2 2 1 0
Height
5687 5689 5692 5693 5693 5693 5693 5692 5691 5690 5688 5685 5682 5678 5674 5669 5665 5659 5653 5647 5640 5633 5626 5618 5609 5600 5591 5582 5572 5563 5553 5542 5537 5543 5520 5505 5485 5463 5446 5423 5401 5387 5377
5680 5682 5683 5685 5685 5685 5685 5684 5682 5681 5679 5675 5671 5667 5663 5658 5653 5647 5640 5634 5627 5619 5611 5602 5593 5584 5574 5564 5555 5544 5533 5519 5507 5504 5496 5476 5452 5432 5411 5395 5379 5364 5354
5672 5674 5675 5677 5677 5678 5677 5676 5674 5672 5669 5665 5661 5657 5652 5647 5641 5635 5627 5620 5612 5604 5595 5586 5577 5568 5559 5548 5537 5525 5512 5497 5480 5466 5462 5444 5422 5402 5389 5375 5365 5355 5346
5665 5666 5668 5669 5670 5670 5668 5667 5665 5663 5659 5655 5651 5647 5641 5635 5628 5622 5614 5606 5598 5588 5579 5570 5561 5551 5541 5529 5517 5504 5489 5473 5454 5436 5419 5407 5394 5382 5371 5363 5357 5344 5337
5658 5659 5661 5662 5662 5661 5661 5659 5656 5653 5649 5646 5641 5635 5629 5622 5616 5608 5601 5592 5583 5574 5565 5555 5545 5533 5521 5508 5494 5479 5461 5444 5426 5410 5396 5383 5373 5367 5359 5351 5344 5338 5326
5651 5653 5654 5654 5654 5654 5653 5650 5647 5644 5640 5635 5629 5623 5617 5610 5603 5595 5587 5578 5569 5560 5550 5539 5527 5515 5503 5489 5472 5455 5433 5411 5398 5386 5378 5369 5362 5355 5347 5341 5334 5328 5323
5645 5646 5647 5648 5648 5646 5644 5641 5638 5634 5629 5624 5618 5611 5605 5597 5589 5581 5572 5564 5554 5544 5534 5522 5511 5497 5482 5468 5452 5431 5411 5391 5376 5369 5365 5357 5351 5343 5338 5333 5326 5320 5312
5639 5640 5640 5640 5639 5638 5636 5633 5629 5624 5618 5612 5606 5599 5592 5584 5576 5567 5558 5549 5539 5529 5517 5504 5490 5476 5460 5444 5429 5411 5394 5377 5366 5358 5352 5347 5341 5335 5329 5323 5317 5314 5307
5633 5633 5633 5633 5631 5630 5627 5623 5618 5613 5607 5601 5594 5587 5579 5571 5562 5553 5545 5535 5525 5514 5499 5483 5469 5455 5437 5420 5403 5390 5378 5365 5356 5350 5344 5338 5331 5324 5318 5314 5310 5304 5300
5626 5627 5626 5625 5624 5621 5617 5612 5607 5602 5596 5589 5582 5575 5567 5559 5549 5540 5531 5521 5510 5497 5482 5464 5447 5430 5412 5396 5383 5374 5365 5356 5349 5341 5335 5329 5322 5316 5309 5303 5298 5294 5290
5621 5620 5619 5618 5615 5611 5607 5602 5597 5591 5585 5578 5570 5562 5554 5546 5537 5527 5516 5503 5490 5477 5461 5443 5425 5407 5391 5379 5369 5361 5354 5348 5341 5334 5328 5322 5315 5309 5303 5296 5289 5283 5280
5615 5613 5611 5608 5605 5601 5597 5591 5586 5580 5574 5566 5558 5549 5541 5533 5523 5512 5499 5485 5472 5457 5440 5420 5404 5388 5376 5367 5358 5352 5345 5339 5332 5326 5319 5313 5307 5301 5295 5288 5282 5276 5269
5607 5605 5602 5599 5596 5591 5586 5581 5575 5569 5562 5554 5547 5539 5530 5520 5509 5497 5484 5469 5453 5435 5417 5398 5384 5373 5364 5356 5350 5343 5336 5330 5324 5317 5311 5304 5298 5292 5287 5282 5275 5270 5263
5599 5596 5594 5590 5586 5581 5576 5570 5564 5557 5550 5543 5535 5527 5517 5506 5495 5482 5468 5452 5436 5417 5399 5384 5371 5362 5355 5349 5342 5335 5328 5321 5314 5308 5301 5294 5288 5282 5277 5274 5269 5264 5259
5591 5588 5585 5581 5576 5571 5565 5559 5552 5546 5539 5532 5524 5514 5504 5492 5479 5464 5448 5430 5414 5397 5383 5371 5361 5354 5347 5341 5334 5327 5320 5313 5305 5298 5291 5284 5277 5272 5267 5265 5260 5256 5252
5583 5580 5576 5572 5567 5561 5555 5548 5542 5535 5528 5519 5509 5498 5486 5472 5459 5444 5427 5409 5394 5381 5370 5361 5354 5349 5343 5337 5330 5322 5315 5307 5299 5292 5285 5279 5272 5266 5262 5257 5253 5250 5247
5575 5571 5567 5562 5557 5551 5545 5539 5531 5522 5513 5504 5493 5480 5467 5455 5441 5425 5409 5392 5379 5370 5360 5355 5350 5344 5338 5332 5326 5319 5312 5304 5297 5289 5282 5275 5269 5263 5258 5253 5249 5245 5241
5566 5562 5557 5552 5547 5541 5536 5529 5522 5513 5503 5491 5476 5465 5451 5435 5421 5407 5393 5380 5368 5360 5356 5351 5346 5340 5334 5329 5323 5316 5309 5302 5294 5286 5279 5273 5267 5260 5255 5250 5245 5241 5237
5558 5553 5548 5543 5538 5532 5525 5517 5509 5498 5487 5475 5463 5447 5433 5416 5401 5389 5379 5371 5362 5357 5352 5348 5342 5337 5331 5326 5320 5313 5306 5299 5291 5284 5277 5270 5264 5258 5252 5247 5242 5237 5233
5550 5545 5540 5535 5529 5521 5514 5505 5495 5483 5470 5457 5445 5433 5418 5403 5389 5377 5368 5362 5358 5354 5350 5345 5340 5335 5329 5323 5316 5309 5302 5294 5286 5279 5273 5266 5260 5255 5250 5244 5240 5235 5231
5543 5538 5532 5526 5519 5511 5501 5491 5480 5467 5454 5441 5426 5412 5399 5388 5378 5369 5362 5358 5355 5351 5347 5343 5338 5333 5327 5321 5314 5306 5299 5291 5284 5277 5270 5264 5258 5252 5247 5242 5238 5234 5229
5535 5529 5523 5515 5507 5497 5487 5476 5463 5450 5437 5423 5408 5392 5382 5373 5367 5361 5357 5355 5353 5350 5346 5342 5338 5333 5327 5321 5314 5307 5299 5291 5283 5276 5269 5262 5255 5250 5245 5240 5236 5232 5228
5526 5520 5512 5504 5494 5483 5471 5459 5447 5433 5418 5403 5389 5379 5370 5363 5358 5355 5354 5353 5351 5349 5346 5342 5337 5332 5327 5321 5315 5308 5300 5292 5283 5275 5267 5260 5254 5249 5243 5238 5234 5231 5228
5517 5509 5500 5490 5480 5469 5457 5443 5429 5414 5398 5385 5374 5366 5360 5355 5352 5351 5351 5351 5350 5349 5346 5342 5337 5333 5327 5321 5316 5309 5302 5293 5285 5276 5269 5262 5254 5247 5241 5236 5232 5229 5228
5506 5497 5488 5477 5466 5453 5440 5425 5410 5393 5380 5370 5360 5354 5350 5348 5347 5349 5349 5350 5350 5349 5346 5343 5338 5333 5328 5323 5318 5311 5304 5296 5287 5279 5271 5263 5254 5247 5240 5234 5230 5230 5229
5494 5485 5474 5463 5451 5438 5424 5408 5391 5377 5366 5356 5348 5343 5342 5342 5345 5347 5348 5349 5350 5349 5346 5343 5339 5334 5330 5326 5320 5313 5307 5299 5292 5284 5276 5267 5258 5250 5244 5239 5236 5234 5233